Tracking 30746 objects as of 19-Jun-2025
HD Live streaming from Space Station
objects crossing your sky now

SATCOM 1

Track SATCOM 1 now!
SATCOM 1 is classified as:


NORAD ID: 8476
Int'l Code: 1975-117A
Perigee: 35,922.6 km
Apogee: 36,041.0 km
Inclination: 8.8 °
Period: 1,445.7 minutes
Semi major axis: 42352 km
RCS: 2.5118 m2 (large)
Launch date: December 13, 1975
Source: United States (US)
Launch site: AIR FORCE EASTERN TEST RANGE (AFETR)
Your satellite tracking list
Your tracking list is empty




NASA's NSSDC Master Catalog

Two Line Element Set (TLE):
1 08476U 75117A   25170.20828649 -.00000265  00000-0  00000-0 0  9994
2 08476   8.7629 307.1828 0013975 262.4106  85.8893  0.99604635 42744
Source of the keplerian elements: AFSPC